Home   Weather   Huddersfield   Past weeks

Flag for United Kingdom Past Weather in Huddersfield, England, United Kingdom — Yesterday and Last 2 Weeks

Now
59 °F

Passing clouds.


Feels Like: 60 °F
Forecast: 54 / 65 °F
Wind: 3 mph from West

Location: Leeds And Bradford

Current Time: Aug 30, 2016 at 11:51:37 PM

Latest Report: Aug 30, 2016 at 11:20 PM


Visibility: N/A

Pressure: 30.09 "Hg

Humidity: 94%

Dew Point: 57 °F

Location of HuddersfieldLocation

Past Weather in Huddersfield — Graph

°F

Huddersfield Temperature Yesterday

Maximum temperature yesterday: 64 °F (at 12:50 PM)
Minimum temperature yesterday: 50 °F (at 4:20 AM)
Average temperature yesterday: 58 °F

High & Low Weather Summary for the Past Weeks

 TemperatureHumidityPressure
High77 °F (Aug 23, 3:50 PM)100% (Aug 16, 3:50 AM)30.24 "Hg (Aug 16, 3:50 AM)
Low48 °F (Aug 16, 3:50 AM)56% (Aug 16, 2:50 PM)29.45 "Hg (Aug 20, 10:50 AM)
Average60 °F87%29.98 "Hg
* Reported Aug 15 10:20 PM — Aug 30 10:50 PM, Huddersfield, Weather by CustomWeather, © 2016

Note: Actual official high and low records may vary slightly from our data, if they occured in-between our weather recording intervals... More about our weather records

Advertising

Huddersfield Weather History for the Previous 24 Hours

Scroll right to see more
 ConditionsComfort  
Time TempWeatherWind HumidityBarometerVisibility
10:50 PM
Tue, Aug 30
61 °FPassing clouds.7 mph88%30.12 "HgN/A
10:20 PM61 °FPassing clouds.7 mph88%30.12 "HgN/A
9:50 PM63 °FPassing clouds.6 mph83%30.12 "HgN/A
9:20 PM63 °FPassing clouds.6 mph83%30.12 "HgN/A
8:50 PM63 °FScattered clouds.6 mph83%30.12 "HgN/A
8:20 PM63 °FSunny.8 mph83%30.12 "Hg10 mi
7:50 PM64 °FSunny.6 mph78%30.12 "Hg10 mi
7:20 PM64 °FPassing clouds.6 mph78%30.12 "HgN/A
6:50 PM64 °FPassing clouds.8 mph78%30.12 "HgN/A
6:20 PM66 °FPassing clouds.9 mph73%30.15 "HgN/A
5:50 PM68 °FPassing clouds.9 mph69%30.15 "HgN/A
5:20 PM66 °FPassing clouds.12 mph73%30.15 "HgN/A
4:50 PM66 °FPassing clouds.10 mph73%30.15 "HgN/A
4:20 PM68 °FPassing clouds.9 mph69%30.15 "HgN/A
3:50 PM68 °FScattered clouds.8 mph73%30.18 "HgN/A
3:20 PM66 °FScattered clouds.8 mph73%30.18 "HgN/A
2:50 PM66 °FPartly sunny.8 mph73%30.21 "HgN/A
2:20 PM66 °FPartly sunny.7 mph73%30.21 "HgN/A
1:50 PM66 °FPartly sunny.9 mph73%30.21 "HgN/A
1:20 PM66 °FScattered clouds.10 mph73%30.21 "HgN/A
12:50 PM66 °FScattered clouds.12 mph73%30.21 "HgN/A
12:20 PM66 °FScattered clouds.10 mph78%30.21 "HgN/A
11:50 AM64 °FScattered clouds.10 mph78%30.21 "HgN/A
11:20 AM64 °FScattered clouds.10 mph78%30.24 "HgN/A
10:50 AM64 °FScattered clouds.10 mph78%30.24 "HgN/A
10:20 AM63 °FScattered clouds.8 mph83%30.21 "HgN/A
9:50 AM61 °FScattered clouds.10 mph88%30.21 "HgN/A
9:20 AM61 °FScattered clouds.9 mph83%30.21 "HgN/A
8:50 AM59 °FScattered clouds.9 mph88%30.21 "HgN/A
8:20 AM57 °FPartly sunny.8 mph88%30.21 "HgN/A
7:50 AM57 °FPartly sunny.6 mph88%30.21 "HgN/A
7:20 AM55 °FPartly sunny.9 mph88%30.21 "HgN/A
6:50 AM54 °FPassing clouds.8 mph94%30.21 "HgN/A
6:20 AM54 °FPassing clouds.8 mph94%30.21 "HgN/A
5:50 AM55 °FPassing clouds.7 mph94%30.21 "HgN/A
5:20 AM54 °FPassing clouds.7 mph94%30.21 "HgN/A
4:50 AM55 °FPassing clouds.5 mph88%30.21 "HgN/A
4:20 AM55 °FPassing clouds.6 mph88%30.21 "HgN/A
3:50 AM52 °FClear.7 mph94%30.21 "Hg10 mi
3:20 AM52 °FClear.5 mph94%30.21 "Hg10 mi
2:50 AM55 °FPassing clouds.6 mph88%30.21 "HgN/A
2:20 AM57 °FClear.12 mph82%30.21 "Hg10 mi
1:50 AM57 °FClear.12 mph82%30.21 "Hg10 mi
1:20 AM55 °FPassing clouds.5 mph88%30.21 "HgN/A
12:50 AM55 °FClear.5 mph88%30.21 "Hg10 mi
12:20 AM57 °FClear.12 mph82%30.21 "Hg10 mi
11:50 PM
Mon, Aug 29
55 °FClear.7 mph88%30.21 "Hg10 mi
11:20 PM57 °FClear.6 mph82%30.21 "Hg10 mi
Weather by CustomWeather, © 2016

See weather overviewHow to use our weather pages